This is the latest recevied weather packets stored in our database for station/object KE8WMS. If no packets are shown the sender has not sent any weather packets the latest 10 day(s).
| Time | Temp. | Humidity | Pressure | Rain* | Wind** | Luminosity | Snow |
|---|---|---|---|---|---|---|---|
| 1777482734 | 10° C | 99% | 1006 hPa | 0 mm | - | 170 W/m² | - |
| 1777482430 | 9.44° C | 99% | 1006 hPa | 0 mm | - | 240 W/m² | - |
| 1777482128 | 9.44° C | 99% | 1006 hPa | 0 mm | - | 135 W/m² | - |
| 1777481826 | 9.44° C | 99% | 1006.2 hPa | 0 mm | - | 186 W/m² | - |
| 1777481523 | 9.44° C | 99% | 1006.1 hPa | 0 mm | - | 132 W/m² | - |
| 1777481219 | 9.44° C | 99% | 1006 hPa | 0 mm | - | 103 W/m² | - |
| 1777480916 | 10° C | 99% | 1006.2 hPa | 0 mm | - | 119 W/m² | - |
| 1777480612 | 9.44° C | 99% | 1006.1 hPa | 0 mm | - | 175 W/m² | - |
| 1777480309 | 9.44° C | 99% | 1006 hPa | 0 mm | - | 212 W/m² | - |
| 1777480005 | 9.44° C | 99% | 1005.8 hPa | 0 mm | - | 184 W/m² | - |
| 1777479702 | 9.44° C | 99% | 1006.1 hPa | 0 mm | - | 221 W/m² | - |
| 1777479400 | 9.44° C | 99% | 1006.3 hPa | 1.78 mm | - | 225 W/m² | - |
| 1777479096 | 8.89° C | 99% | 1006.4 hPa | 1.78 mm | - | 123 W/m² | - |
| 1777478793 | 9.44° C | 99% | 1006.5 hPa | 1.78 mm | - | 84 W/m² | - |
| 1777478490 | 9.44° C | 99% | 1006.5 hPa | 6.1 mm | - | 72 W/m² | - |
| 1777478187 | 8.89° C | 99% | 1006.7 hPa | 6.1 mm | - | 84 W/m² | - |
| 1777477883 | 9.44° C | 99% | 1007 hPa | 4.83 mm | - | 66 W/m² | - |
| 1777477578 | 9.44° C | 99% | 1007.2 hPa | 4.32 mm | - | 42 W/m² | - |
| 1777477275 | 9.44° C | 99% | 1007.2 hPa | 1.27 mm | - | 36 W/m² | - |
| 1777476971 | 9.44° C | 99% | 1007 hPa | 0 mm | - | 28 W/m² | - |
| 1777476670 | 9.44° C | 99% | 1006.9 hPa | 0 mm | - | 28 W/m² | - |
| 1777476366 | 10° C | 99% | 1006.5 hPa | 0 mm | - | 53 W/m² | - |
| 1777476062 | 10° C | 99% | 1006.7 hPa | 0 mm | - | 72 W/m² | - |
| 1777475757 | 10° C | 99% | 1006.5 hPa | 0 mm | - | 165 W/m² | - |
| 1777475454 | 10.56° C | 99% | 1006.2 hPa | 0 mm | - | 263 W/m² | - |
* Rain latest hour (hover to see other rain measurements)
** Current wind speed in m/s (hover to see current wind gust speed)